Zurück zum Katalog

DELTA 1 DEB

AktivLEO
NORAD 10750·DEBRIS·🇺🇸 United States

Gestartet Jul 29, 1976 von Vandenberg Space Force Base

Loading…

Nächste Überflüge (nächste 24 Stunden)

TLE

AktuellSource: Space-Track

Epoche: Sep 13, 2026, 08:41 UTC

1 10750U 76077AX  26256.36195856  .00004382  00000-0  25733-2 0  9993
2 10750 101.6450 237.9302 0373483 280.4390  75.4876 13.79155475377801

Verfolge DELTA 1 DEB in Echtzeit mit AllMySat

Download on the App Store